Regional Weather Roundup
Issued by NWS

Home | Current Version | Previous Version | Graphics & Text | Print | Product List | Glossary On
Versions: 1 2 3 4 5 6 7 8 9 10 11 12 13 14 15 16 17 18 19 20 21 22 23 24 25 26 27 28 29 30 31 32 33 34 35 36 37 38 39 40 41 42 43 44 45 46 47 48 49 50
000
ASUS45 KSLC 260710
RWRUT

UTAH REGIONAL WEATHER ROUNDUP
NATIONAL WEATHER SERVICE SALT LAKE CITY UT
100 AM MDT WED JUL 26 2017

UTZ001>011-023>025-260800-

NORTHERN UTAH

CITY           SKY/WX    TMP DP  RH WIND       PRES   REMARKS
BRIGHAM CITY   CLEAR     73  54  50 CALM      30.12S
HILL AFB       PTCLDY    70  58  64 E10       30.15S
LOGAN          CLEAR     65  57  75 CALM      30.13R
OGDEN          PTCLDY    72  58  61 S9        30.12R
SALT LAKE CITY PTCLDY    75  60  59 E7        30.11R
TOOELE VALLEY  MOCLDY    73  59  60 SW8       30.12R
WENDOVER       CLOUDY    72  57  59 SW7       30.13F
HEBER CITY     PTCLDY    59  54  82 CALM      30.21S
WEST JORDAN    PTCLDY    70  66  87 S7        30.15S

$$

UTZ011>015-024>027-260800-

CENTRAL/NORTHEAST UTAH

CITY           SKY/WX    TMP DP  RH WIND       PRES   REMARKS
PROVO AIRPORT  NOT AVBL
MOAB/CANYONLAN MOCLDY    69  68  96 CALM      30.14S
DELTA          MOCLDY    72  57  60 S15G24    30.17R
PRICE          PTCLDY    61  60  97 NE3       30.25R
ROOSEVELT      CLOUDY    64  63  94 CALM      30.23S
VERNAL         CLOUDY    65  63  93 CALM      30.21S

$$

UTZ013>016-019>022-027-260800-

SOUTHERN UTAH

CITY           SKY/WX    TMP DP  RH WIND       PRES   REMARKS
BRYCE CANYON   CLEAR     54  53  97 W6        30.39R
CEDAR CITY     CLEAR     61  58  90 CALM      30.26S
MILFORD        PTCLDY    69  60  73 S14       30.20S
ST GEORGE      MOSUNNY   74  70  87 CALM      30.12R
HANKSVILLE     CLEAR     68  64  88 CALM      30.18R
BLANDING       PTCLDY    62  58  89 CALM      30.33R

$$

REGIONAL REPORTS     COLORADO/ARIZONA

CITY           SKY/WX    TMP DP  RH WIND       PRES   REMARKS
CRAIG, CO      LGT RAIN  62  59  90 CALM      30.27S FOG
GRAND JUNCTION CLOUDY    68  64  87 CALM      30.17S
RIFLE, CO      CLOUDY    67  58  72 CALM      30.21R
MONTROSE, CO   CLOUDY    64  63  96 SE3       30.26R
CORTEZ, CO     CLOUDY    61  59  93 E5        30.27S
COLORADO CITY    N/A     64  63  94 SE3       30.26S
PAGE, AZ       CLEAR     72  61  68 VRB3      30.17R
GRAND CANYON   CLEAR     54  53  97 CALM      30.35R
KINGMAN, AZ    CLEAR     68  66  93 NE5       30.13S
FLAGSTAFF, AZ  CLEAR     57  55  93 CALM      30.37S

$$

REGIONAL REPORTS    NEVADA/IDAHO/WYOMING

CITY           SKY/WX    TMP DP  RH WIND       PRES   REMARKS
LAS VEGAS, NV  PTCLDY    79  67  66 E3        30.05R
ELY, NY        CLOUDY    58  56  93 MISG      30.29S
ELKO, NV       CLOUDY    69  54  58 E5        30.19R
POCATELLO, ID  MOCLDY    66  51  58 CALM      30.14R
BURLEY, ID     LGT RAIN  69  58  67 S6        30.11R
FORT BRIDGER,    N/A     58  51  79 W7        30.33S
EVANSTON, WY   CLOUDY    59  54  83 S3        30.32R
ROCK SPRINGS,  CLOUDY    58  54  86 E3        30.31F
KEMMERER, WY     N/A    N/A N/A N/A N10       30.34S

$$



USA.gov is the U.S. government's official web portal to all federal, state and local government web resources and services.